User: anonymous   Login
Location: Bieg
(49.3499°N, 10.3835°E)
Time: 06:19:45
(UTC+00:00)
Language:

ALOS - Orbit

View from above orbital plane
View from above orbital plane
View from above satellite
View from above satellite

Ground track
Ground track

The orbit data is extracted from the following two-line orbital elements,

1 28931U 06002A   24204.85555840  .00004059  00000-0  74856-3 0  9994
2 28931  98.0381 157.1606 0002302  67.6818 292.4630 14.66038609986577
Epoch (UTC): 22 July 2024 20:32:00
Eccentricity: 0.0002302
inclination: 98.0381°
perigee height: 672 km
apogee height: 675 km
right ascension of ascending node: 157.1606°
argument of perigee: 67.6818°
revolutions per day: 14.66038609
mean anomaly at epoch: 292.4630°
orbit number at epoch: 98657

The dashed part of the orbit path shows where the satellite is in the earth's shadow,  

DLR